STARLINK-1795, 46696

Orbit data source: Space-Track

STARLINK-1795, 46696 is a payload satellite owned by SpaceX/Seattle (US) in LEO that was launched on Sun, 18 Oct 2020 UTC via an FALCON 9 launch vehicle from the Air Force Eastern Test Range (AFETR). Payload-class satellites include a variety of spacecraft equipped with specific instruments for various scientific and technological missions. These include communications satellites like Starlink; space stations such as the ISS; scientific satellites like the Hubble; Earth observation satellites from companies like Planet Labs, Umbra, and HawkEye 360; GPS; miniature CubeSats for education and research; and military/defense satellites.

Loading next visibility...
Identifier
46696, 2020-073AC
Orbit
LEO
Last TLE update
16 hours ago
Origin
Manufacturer
SpaceX/Seattle
Mission
Operational Commercial Communications
Bus & Motor
STARLINK, Unknown motor
Mass
260 kg wet, ~248 kg dry
Launch date (UTC)
2020-10-18 (5 years ago)
Launch vehicle
FALCON 9
Launch site
Air Force Eastern Test Range (AFETR)
Object type
Payload
Rocket body
Debris
Shape & HBR
Box + 1 Pan, 8.86 m
Radar Cross Section
13.562 m², Large (>1 m²)

Expand to show TLE details & history

TLE from 16 hours ago
0 STARLINK-1795
1 46696U 20073AC  25181.61111625  .00004005  00000-0  28759-3 0  9996
2 46696  53.0554 273.2434 0001059  83.6790 276.4320 15.06402088259417
Epoch: 2025-06-30T14:40Z
TLE epoch observation values (Epoch: 2025-06-30T14:40:00.444Z)
Latitude
0.00004°
Longitude
134.32314°
Altitude
548.002 km
Speed
7.589 km/s
True Right ascension
18h 12m 58s
True Declination
0° 00' 00"
Sunlit
Object was in full shadow at epoch
Visualization orbit readout
Latitude
41.84954°
Longitude
-90.81622°
Altitude
550.59 km
Speed
7.592 km/s
Apparent Right ascension
04h 56m 09s
Apparent Declination
3° 22' 13"
Sunlit
Object is in daylight
Visualization observer readout
Local Sidereal Time
18:46:04
Azimuth
36.907° NE
Elevation
-39.907°
Doppler factor
1
Orbital elements
Apogee altitude
548.209 km
Perigee altitude
546.742 km
Semi-major axis
6,925.613 km
Eccentricity
0.00011
Inclination
53.0554°
RAAN
273.2434°
Arg. of periapsis
83.679°
True anomaly
Unknown
Mean anomaly
276.432°
Eccentric anomaly
Unknown
Mean motion
3.76579 °/min
Orbital period
95.6 mins
BSTAR
0.00028759
Loading maneuver chart data...
Loading SW <> Apogee altitude chart data...
Loading historical data...
Loading historical data...
Loading historical data...
Loading historical data...
Loading historical data...
Loading historical data...
Loading historical data...

STARLINK-1795 Visibility forecast

Observer location: undefined°, undefined°

Span
Click to sort rows by Start time (UTC) header in descending order
Start Az.
Max El. time (UTC)
Max El. Az.
Max El.
End time (UTC)
End Az.
7 mins2025-07-01 08:20:10.490Z206.489° SW2025-07-01 08:24:10.490Z117.534° SE35.176°2025-07-01 08:27:10.490Z63.549° ENE
5 mins2025-07-01 10:01:10.490Z281.6° WNW2025-07-01 10:03:10.490Z323.312° NNW26.468°2025-07-01 10:06:10.490Z26.751° NE
6 mins2025-07-01 15:03:10.490Z331.067° NNW2025-07-01 15:05:10.490Z29.516° NE36.799°2025-07-01 15:09:10.490Z109.975° ESE
4 mins2025-07-01 16:43:10.490Z260.712° W2025-07-01 16:44:10.490Z239.84° WSW21.762°2025-07-01 16:47:10.490Z183.211° SSW
|